Wind From: 11-12-2017 12:03 Until: 12-12-2017 06:00 warning for: Wind Level: Orange info button

Power and phone distribution networks may be disrupted for relatively long periods., Roofs and chimneys can be damaged. , Tree branches may break. , Vehicles can be deported. , Traffic may be disrupted, particularly on secondary roads in forest areas. Limit your trips. , Limit your speed in highway driving, especially if you drive a vehicle or hitch sensitive to wind. , Do not go for walks in forests or along the coast., In town, be vigilant against possible falling objects., Do not work on roofs and do not touch any electrical line fallen on the ground., Store or secure sensitive objects to wind or likely to be damaged., Always install power generators outside buildings. 


Meteo18 Weather Cam more information Meteo18 Weather Cam


Thunder radar more information blitzortung!


Rain radar more information rain snow radar


Visit our other weather sites:

Template documentation
and downloads

And another site



Weather Underground History page Text

Daily Summary for August 15, 2016 Units:  Metric    English   Both
« Previous Day
Next Day »
Daily Weekly Monthly Yearly Custom
  High: Low: Average:
Temperature: 31.0 °C 17.3 °C 24.8 °C
Dew Point: 15.7 °C 12.4 °C 14.3 °C
Humidity: 77 % 38 % 54 %
Wind Speed: 20.9 km/h 0.0 km/h 7 km/h
Wind Gust: 24.1 km/h - -
Wind:- - SSE
Pressure: 1020.2 hPa 1015.1 hPa -
Precipitation: 0.0 mm    
Historical Graphs
 
 
Tabular Data for August 15, 2016
Time Temperature Dew Point Pressure Wind Wind Speed Wind Gust Humidity Rainfall Rate (Hourly)
00:02 21.8 °C 12.6 °C 1020.2 hPa NW 4.8 km/h 11.3 km/h 56 % 0.0 mm
00:12 21.6 °C 12.4 °C 1020.2 hPa NNW 3.2 km/h 11.3 km/h 56 % 0.0 mm
00:17 21.5 °C 12.6 °C 1020.2 hPa Calm   11.3 km/h 57 % 0.0 mm
00:22 21.4 °C 12.5 °C 1020.2 hPa NNW 3.2 km/h 12.9 km/h 57 % 0.0 mm
00:32 21.3 °C 12.7 °C 1019.9 hPa NNW 4.8 km/h 12.9 km/h 58 % 0.0 mm
00:42 21.2 °C 12.9 °C 1020.2 hPa North 1.6 km/h 12.9 km/h 59 % 0.0 mm
00:52 21.2 °C 12.9 °C 1020.2 hPa NNE 3.2 km/h 11.3 km/h 59 % 0.0 mm
01:02 20.9 °C 13.1 °C 1020.2 hPa NNE 1.6 km/h 12.9 km/h 61 % 0.0 mm
01:17 20.7 °C 13.2 °C 1020.2 hPa NNW 4.8 km/h 9.7 km/h 62 % 0.0 mm
01:22 20.7 °C 13.2 °C 1020.2 hPa Calm   9.7 km/h 62 % 0.0 mm
01:32 20.6 °C 13.1 °C 1020.2 hPa NNW 4.8 km/h 9.7 km/h 62 % 0.0 mm
01:37 20.6 °C 13.1 °C 1020.2 hPa North 9.7 km/h 11.3 km/h 62 % 0.0 mm
01:42 20.6 °C 13.1 °C 1020.2 hPa North 3.2 km/h 11.3 km/h 62 % 0.0 mm
01:52 20.4 °C 12.9 °C 1020.2 hPa North 8.0 km/h 9.7 km/h 62 % 0.0 mm
02:02 20.3 °C 12.8 °C 1020.2 hPa North 4.8 km/h 12.9 km/h 62 % 0.0 mm
02:12 20.2 °C 12.9 °C 1020.2 hPa North 6.4 km/h 12.9 km/h 63 % 0.0 mm
02:17 20.2 °C 12.9 °C 1020.2 hPa WNW 6.4 km/h 12.9 km/h 63 % 0.0 mm
02:22 20.2 °C 13.2 °C 1019.9 hPa North 9.7 km/h 12.9 km/h 64 % 0.0 mm
02:42 19.9 °C 13.1 °C 1019.9 hPa NNW 6.4 km/h 14.5 km/h 65 % 0.0 mm
02:47 19.8 °C 13.0 °C 1019.9 hPa East 3.2 km/h 14.5 km/h 65 % 0.0 mm
02:52 19.8 °C 13.3 °C 1019.9 hPa NNE 6.4 km/h 14.5 km/h 66 % 0.0 mm
02:57 19.7 °C 13.2 °C 1019.9 hPa NW 4.8 km/h 14.5 km/h 66 % 0.0 mm
03:02 19.6 °C 13.1 °C 1019.9 hPa North 3.2 km/h 12.9 km/h 66 % 0.0 mm
03:12 19.6 °C 13.1 °C 1019.9 hPa NNW 4.8 km/h 14.5 km/h 66 % 0.0 mm
03:17 19.6 °C 13.3 °C 1019.9 hPa NNE 6.4 km/h 14.5 km/h 67 % 0.0 mm
03:22 19.5 °C 13.2 °C 1019.9 hPa NNW 3.2 km/h 12.9 km/h 67 % 0.0 mm
03:32 19.3 °C 13.0 °C 1019.9 hPa NNW 11.3 km/h 12.9 km/h 67 % 0.0 mm
03:42 19.2 °C 13.1 °C 1019.9 hPa North 12.9 km/h 14.5 km/h 68 % 0.0 mm
03:52 19.1 °C 13.3 °C 1019.5 hPa NE 4.8 km/h 12.9 km/h 69 % 0.0 mm
03:57 19.0 °C 13.2 °C 1019.5 hPa North 4.8 km/h 14.5 km/h 69 % 0.0 mm
04:02 19.0 °C 13.2 °C 1019.5 hPa NNE 3.2 km/h 16.1 km/h 69 % 0.0 mm
04:07 19.0 °C 13.2 °C 1019.5 hPa NNE 1.6 km/h 16.1 km/h 69 % 0.0 mm
04:12 19.0 °C 13.2 °C 1019.5 hPa NNE 1.6 km/h 16.1 km/h 69 % 0.0 mm
04:32 18.9 °C 13.1 °C 1019.2 hPa NNW 6.4 km/h 9.7 km/h 69 % 0.0 mm
04:37 18.8 °C 13.2 °C 1019.2 hPa North 8.0 km/h 9.7 km/h 70 % 0.0 mm
04:42 18.8 °C 13.2 °C 1019.2 hPa NNW 4.8 km/h 12.9 km/h 70 % 0.0 mm
04:47 18.8 °C 13.2 °C 1019.2 hPa NNW 8.0 km/h 12.9 km/h 70 % 0.0 mm
04:52 18.8 °C 13.2 °C 1019.2 hPa NE 6.4 km/h 12.9 km/h 70 % 0.0 mm
05:02 18.8 °C 13.2 °C 1019.2 hPa North 3.2 km/h 14.5 km/h 70 % 0.0 mm
05:12 18.6 °C 13.0 °C 1018.8 hPa North 4.8 km/h 12.9 km/h 70 % 0.0 mm
05:17 18.4 °C 13.0 °C 1018.8 hPa NNW 4.8 km/h 12.9 km/h 71 % 0.0 mm
05:22 18.3 °C 13.2 °C 1018.8 hPa North 6.4 km/h 12.9 km/h 72 % 0.0 mm
05:32 18.2 °C 13.3 °C 1018.8 hPa North 6.4 km/h 11.3 km/h 73 % 0.0 mm
05:37 18.1 °C 13.2 °C 1018.8 hPa NNW 6.4 km/h 11.3 km/h 73 % 0.0 mm
05:42 18.0 °C 13.1 °C 1018.8 hPa North 3.2 km/h 11.3 km/h 73 % 0.0 mm
05:57 17.8 °C 13.1 °C 1018.8 hPa North 6.4 km/h 9.7 km/h 74 % 0.0 mm
06:02 17.7 °C 13.0 °C 1018.8 hPa NNW 3.2 km/h 9.7 km/h 74 % 0.0 mm
06:12 17.6 °C 13.1 °C 1018.8 hPa NNW 3.2 km/h 9.7 km/h 75 % 0.0 mm
06:17 17.5 °C 13.2 °C 1019.2 hPa NNW 4.8 km/h 9.7 km/h 76 % 0.0 mm
06:22 17.4 °C 13.1 °C 1019.2 hPa NNE 9.7 km/h 9.7 km/h 76 % 0.0 mm
06:32 17.3 °C 13.2 °C 1019.2 hPa NNW 9.7 km/h 12.9 km/h 77 % 0.0 mm
06:42 17.4 °C 13.1 °C 1018.8 hPa NNW 6.4 km/h 12.9 km/h 76 % 0.0 mm
06:52 17.5 °C 13.2 °C 1018.8 hPa NW 4.8 km/h 16.1 km/h 76 % 0.0 mm
07:02 17.6 °C 13.3 °C 1018.8 hPa North 4.8 km/h 14.5 km/h 76 % 0.0 mm
07:12 17.9 °C 13.4 °C 1018.8 hPa NE 3.2 km/h 14.5 km/h 75 % 0.0 mm
07:17 18.1 °C 13.4 °C 1018.8 hPa North 8.0 km/h 12.9 km/h 74 % 0.0 mm
07:22 18.2 °C 13.5 °C 1018.8 hPa North 4.8 km/h 9.7 km/h 74 % 0.0 mm
07:32 18.5 °C 13.6 °C 1018.8 hPa North 8.0 km/h 11.3 km/h 73 % 0.0 mm
07:42 18.7 °C 13.5 °C 1018.8 hPa NNE 11.3 km/h 14.5 km/h 72 % 0.0 mm
07:47 18.8 °C 13.6 °C 1018.8 hPa NE 6.4 km/h 16.1 km/h 72 % 0.0 mm
07:52 18.9 °C 13.7 °C 1018.8 hPa NNE 9.7 km/h 16.1 km/h 72 % 0.0 mm
07:57 19.0 °C 13.8 °C 1018.8 hPa NNW 4.8 km/h 14.5 km/h 72 % 0.0 mm
08:02 19.1 °C 13.7 °C 1018.8 hPa NE 6.4 km/h 11.3 km/h 71 % 0.0 mm
08:12 19.3 °C 13.9 °C 1018.8 hPa North 8.0 km/h 11.3 km/h 71 % 0.0 mm
08:22 19.6 °C 14.2 °C 1018.8 hPa NE 4.8 km/h 16.1 km/h 71 % 0.0 mm
08:32 20.0 °C 14.1 °C 1019.2 hPa North 8.0 km/h 16.1 km/h 69 % 0.0 mm
08:37 20.1 °C 14.2 °C 1019.2 hPa NW 8.0 km/h 14.5 km/h 69 % 0.0 mm
08:42 20.1 °C 14.2 °C 1019.2 hPa NNE 6.4 km/h 14.5 km/h 69 % 0.0 mm
08:47 20.2 °C 14.3 °C 1019.2 hPa ENE 1.6 km/h 12.9 km/h 69 % 0.0 mm
08:57 20.4 °C 14.3 °C 1019.2 hPa North 8.0 km/h 12.9 km/h 68 % 0.0 mm
09:02 20.7 °C 14.4 °C 1018.8 hPa East 3.2 km/h 12.9 km/h 67 % 0.0 mm
09:12 21.0 °C 14.4 °C 1018.8 hPa NE 4.8 km/h 12.9 km/h 66 % 0.0 mm
09:17 21.2 °C 14.4 °C 1018.8 hPa NNE 6.4 km/h 14.5 km/h 65 % 0.0 mm
09:22 21.3 °C 14.5 °C 1018.8 hPa NNW 9.7 km/h 17.7 km/h 65 % 0.0 mm
09:27 21.4 °C 14.5 °C 1018.8 hPa North 9.7 km/h 17.7 km/h 65 % 0.0 mm
09:32 21.6 °C 14.7 °C 1018.8 hPa NE 6.4 km/h 17.7 km/h 65 % 0.0 mm
09:37 21.8 °C 14.7 °C 1018.8 hPa NE 6.4 km/h 16.1 km/h 64 % 0.0 mm
09:42 22.0 °C 14.6 °C 1018.8 hPa ENE 6.4 km/h 16.1 km/h 63 % 0.0 mm
09:47 22.0 °C 14.6 °C 1018.8 hPa NE 4.8 km/h 17.7 km/h 63 % 0.0 mm
09:52 22.1 °C 14.5 °C 1018.8 hPa NNW 3.2 km/h 19.3 km/h 62 % 0.0 mm
10:02 22.6 °C 14.9 °C 1018.8 hPa North 6.4 km/h 19.3 km/h 62 % 0.0 mm
10:12 22.8 °C 14.6 °C 1018.8 hPa NE 14.5 km/h 16.1 km/h 60 % 0.0 mm
10:17 22.8 °C 14.9 °C 1018.8 hPa NE 20.9 km/h 20.9 km/h 61 % 0.0 mm
10:22 22.9 °C 14.5 °C 1018.8 hPa NNE 8.0 km/h 20.9 km/h 59 % 0.0 mm
10:27 23.3 °C 14.6 °C 1018.8 hPa NE 12.9 km/h 20.9 km/h 58 % 0.0 mm
10:37 23.4 °C 14.9 °C 1018.8 hPa NE 8.0 km/h 19.3 km/h 59 % 0.0 mm
10:42 23.6 °C 14.9 °C 1018.8 hPa NE 8.0 km/h 17.7 km/h 58 % 0.0 mm
10:47 23.7 °C 14.9 °C 1018.8 hPa ENE 6.4 km/h 17.7 km/h 58 % 0.0 mm
10:52 23.8 °C 15.0 °C 1018.8 hPa NNW 11.3 km/h 17.7 km/h 58 % 0.0 mm
11:02 24.2 °C 15.1 °C 1018.8 hPa NE 12.9 km/h 16.1 km/h 57 % 0.0 mm
11:07 24.4 °C 15.3 °C 1018.8 hPa NNE 4.8 km/h 17.7 km/h 57 % 0.0 mm
11:12 24.4 °C 15.1 °C 1018.5 hPa NNE 14.5 km/h 17.7 km/h 56 % 0.0 mm
11:17 24.4 °C 15.3 °C 1018.5 hPa NE 16.1 km/h 17.7 km/h 57 % 0.0 mm
11:22 24.7 °C 15.6 °C 1018.5 hPa NW 9.7 km/h 20.9 km/h 57 % 0.0 mm
11:27 25.2 °C 15.5 °C 1018.5 hPa NNE 3.2 km/h 20.9 km/h 55 % 0.0 mm
11:37 25.4 °C 15.4 °C 1018.5 hPa NE 12.9 km/h 20.9 km/h 54 % 0.0 mm
11:42 25.6 °C 15.6 °C 1018.5 hPa NE 6.4 km/h 24.1 km/h 54 % 0.0 mm
11:52 26.0 °C 15.7 °C 1018.5 hPa NE 9.7 km/h 19.3 km/h 53 % 0.0 mm
11:57 26.0 °C 15.4 °C 1018.2 hPa NE 9.7 km/h 19.3 km/h 52 % 0.0 mm
12:02 26.2 °C 15.3 °C 1018.2 hPa North 8.0 km/h 22.5 km/h 51 % 0.0 mm
12:07 26.2 °C 15.3 °C 1018.2 hPa North 1.6 km/h 22.5 km/h 51 % 0.0 mm
12:12 26.5 °C 15.2 °C 1018.2 hPa NW 17.7 km/h 22.5 km/h 50 % 0.0 mm
12:17 26.5 °C 15.2 °C 1018.2 hPa NNW 9.7 km/h 22.5 km/h 50 % 0.0 mm
12:22 26.9 °C 15.0 °C 1018.2 hPa NNE 19.3 km/h 22.5 km/h 48 % 0.0 mm
12:27 26.8 °C 15.2 °C 1018.2 hPa NE 6.4 km/h 22.5 km/h 49 % 0.0 mm
12:32 26.9 °C 14.6 °C 1018.2 hPa ENE 9.7 km/h 24.1 km/h 47 % 0.0 mm
12:37 27.1 °C 14.8 °C 1018.2 hPa NNW 4.8 km/h 24.1 km/h 47 % 0.0 mm
12:42 27.2 °C 14.9 °C 1018.2 hPa ENE 4.8 km/h 22.5 km/h 47 % 0.0 mm
12:47 27.4 °C 14.8 °C 1018.2 hPa ENE 4.8 km/h 22.5 km/h 46 % 0.0 mm
12:52 27.4 °C 14.8 °C 1018.2 hPa NE 6.4 km/h 22.5 km/h 46 % 0.0 mm
12:57 27.6 °C 14.9 °C 1018.2 hPa NE 4.8 km/h 19.3 km/h 46 % 0.0 mm
13:02 27.8 °C 14.8 °C 1018.2 hPa NE 9.7 km/h 22.5 km/h 45 % 0.0 mm
13:07 28.1 °C 14.7 °C 1017.8 hPa NNE 9.7 km/h 22.5 km/h 44 % 0.0 mm
13:12 28.0 °C 15.0 °C 1017.8 hPa NE 19.3 km/h 19.3 km/h 45 % 0.0 mm
13:17 28.0 °C 14.6 °C 1017.8 hPa NE 9.7 km/h 22.5 km/h 44 % 0.0 mm
13:22 28.2 °C 15.1 °C 1017.8 hPa North 14.5 km/h 22.5 km/h 45 % 0.0 mm
13:27 28.5 °C 15.1 °C 1017.8 hPa ESE 6.4 km/h 22.5 km/h 44 % 0.0 mm
13:32 28.4 °C 14.6 °C 1017.8 hPa NE 9.7 km/h 22.5 km/h 43 % 0.0 mm
13:37 28.6 °C 15.2 °C 1017.8 hPa NNE 14.5 km/h 22.5 km/h 44 % 0.0 mm
13:47 29.1 °C 14.9 °C 1017.5 hPa North 14.5 km/h 16.1 km/h 42 % 0.0 mm
13:52 29.3 °C 14.7 °C 1017.5 hPa NNE 8.0 km/h 17.7 km/h 41 % 0.0 mm
13:57 29.1 °C 14.5 °C 1017.8 hPa NE 4.8 km/h 20.9 km/h 41 % 0.0 mm
14:02 29.0 °C 14.8 °C 1017.5 hPa NE 8.0 km/h 20.9 km/h 42 % 0.0 mm
14:07 29.1 °C 14.5 °C 1017.5 hPa ENE 4.8 km/h 20.9 km/h 41 % 0.0 mm
14:12 29.2 °C 15.0 °C 1017.5 hPa NNW 4.8 km/h 19.3 km/h 42 % 0.0 mm
14:17 29.2 °C 14.6 °C 1017.5 hPa NNW 8.0 km/h 19.3 km/h 41 % 0.0 mm
14:22 29.2 °C 14.6 °C 1017.5 hPa ENE 9.7 km/h 19.3 km/h 41 % 0.0 mm
14:32 29.3 °C 15.1 °C 1017.5 hPa NNE 12.9 km/h 20.9 km/h 42 % 0.0 mm
14:37 29.4 °C 14.8 °C 1017.2 hPa NW 6.4 km/h 20.9 km/h 41 % 0.0 mm
14:42 29.8 °C 15.5 °C 1017.2 hPa North 9.7 km/h 20.9 km/h 42 % 0.0 mm
14:47 29.7 °C 15.0 °C 1017.2 hPa NE 8.0 km/h 19.3 km/h 41 % 0.0 mm
14:52 29.8 °C 15.1 °C 1017.2 hPa North 12.9 km/h 19.3 km/h 41 % 0.0 mm
14:57 29.9 °C 14.8 °C 1017.2 hPa NNE 12.9 km/h 22.5 km/h 40 % 0.0 mm
15:02 29.9 °C 15.2 °C 1017.2 hPa ENE 8.0 km/h 22.5 km/h 41 % 0.0 mm
15:07 30.0 °C 15.3 °C 1017.2 hPa North 11.3 km/h 22.5 km/h 41 % 0.0 mm
15:12 30.2 °C 15.5 °C 1017.2 hPa NW 4.8 km/h 20.9 km/h 41 % 0.0 mm
15:17 30.3 °C 15.2 °C 1017.2 hPa NNE 8.0 km/h 20.9 km/h 40 % 0.0 mm
15:22 30.3 °C 15.2 °C 1016.8 hPa North 12.9 km/h 19.3 km/h 40 % 0.0 mm
15:32 30.2 °C 15.5 °C 1016.8 hPa ENE 6.4 km/h 20.9 km/h 41 % 0.0 mm
15:37 30.6 °C 15.5 °C 1016.8 hPa NE 14.5 km/h 20.9 km/h 40 % 0.0 mm
15:42 30.3 °C 15.2 °C 1016.8 hPa NW 1.6 km/h 20.9 km/h 40 % 0.0 mm
15:47 30.7 °C 15.2 °C 1016.8 hPa NNE 9.7 km/h 20.9 km/h 39 % 0.0 mm
15:52 30.6 °C 15.1 °C 1016.8 hPa NNW 6.4 km/h 20.9 km/h 39 % 0.0 mm
15:57 30.4 °C 15.3 °C 1016.5 hPa NE 8.0 km/h 20.9 km/h 40 % 0.0 mm
16:02 30.4 °C 15.3 °C 1016.5 hPa NE 14.5 km/h 20.9 km/h 40 % 0.0 mm
16:07 30.5 °C 15.4 °C 1016.5 hPa North 8.0 km/h 20.9 km/h 40 % 0.0 mm
16:12 30.6 °C 15.1 °C 1016.5 hPa NNE 8.0 km/h 20.9 km/h 39 % 0.0 mm
16:17 30.5 °C 15.4 °C 1016.5 hPa NW 8.0 km/h 19.3 km/h 40 % 0.0 mm
16:22 30.7 °C 15.2 °C 1016.5 hPa ENE 3.2 km/h 19.3 km/h 39 % 0.0 mm
16:27 30.6 °C 15.1 °C 1016.5 hPa NW 3.2 km/h 20.9 km/h 39 % 0.0 mm
16:32 30.7 °C 15.2 °C 1016.5 hPa NNE 19.3 km/h 20.9 km/h 39 % 0.0 mm
16:37 30.4 °C 14.9 °C 1016.1 hPa East 11.3 km/h 22.5 km/h 39 % 0.0 mm
16:42 30.7 °C 15.2 °C 1016.1 hPa NNE 6.4 km/h 22.5 km/h 39 % 0.0 mm
16:47 30.8 °C 15.2 °C 1016.1 hPa ENE 1.6 km/h 22.5 km/h 39 % 0.0 mm
16:52 31.0 °C 15.0 °C 1016.1 hPa North 14.5 km/h 19.3 km/h 38 % 0.0 mm
16:57 30.8 °C 15.2 °C 1016.1 hPa NE 9.7 km/h 22.5 km/h 39 % 0.0 mm
17:12 30.5 °C 15.0 °C 1016.1 hPa North 6.4 km/h 19.3 km/h 39 % 0.0 mm
17:17 30.2 °C 15.1 °C 1016.1 hPa North 6.4 km/h 19.3 km/h 40 % 0.0 mm
17:22 30.1 °C 15.0 °C 1016.1 hPa North 9.7 km/h 19.3 km/h 40 % 0.0 mm
17:27 30.4 °C 14.9 °C 1016.1 hPa NNE 9.7 km/h 19.3 km/h 39 % 0.0 mm
17:32 30.3 °C 15.2 °C 1016.1 hPa NE 6.4 km/h 20.9 km/h 40 % 0.0 mm
17:37 30.6 °C 15.1 °C 1015.8 hPa NW 8.0 km/h 20.9 km/h 39 % 0.0 mm
17:42 30.5 °C 15.0 °C 1015.8 hPa NNW 3.2 km/h 20.9 km/h 39 % 0.0 mm
17:47 30.6 °C 15.1 °C 1015.8 hPa North 4.8 km/h 16.1 km/h 39 % 0.0 mm
17:52 30.7 °C 15.2 °C 1015.8 hPa NE 14.5 km/h 19.3 km/h 39 % 0.0 mm
17:57 30.5 °C 15.0 °C 1015.8 hPa NE 4.8 km/h 19.3 km/h 39 % 0.0 mm
18:02 30.7 °C 15.2 °C 1015.8 hPa ENE 4.8 km/h 19.3 km/h 39 % 0.0 mm
18:12 30.6 °C 15.1 °C 1015.8 hPa NNW 3.2 km/h 24.1 km/h 39 % 0.0 mm
18:22 30.3 °C 14.8 °C 1015.5 hPa NE 8.0 km/h 24.1 km/h 39 % 0.0 mm
18:32 30.3 °C 14.8 °C 1015.5 hPa NE 12.9 km/h 20.9 km/h 39 % 0.0 mm
18:42 30.2 °C 15.1 °C 1015.5 hPa NW 9.7 km/h 20.9 km/h 40 % 0.0 mm
18:52 29.9 °C 14.8 °C 1015.5 hPa NNW 8.0 km/h 22.5 km/h 40 % 0.0 mm
18:57 30.0 °C 14.9 °C 1015.5 hPa North 12.9 km/h 22.5 km/h 40 % 0.0 mm
19:02 30.1 °C 15.0 °C 1015.5 hPa NNE 6.4 km/h 22.5 km/h 40 % 0.0 mm
19:12 29.9 °C 14.8 °C 1015.5 hPa NNW 3.2 km/h 24.1 km/h 40 % 0.0 mm
19:17 29.8 °C 14.7 °C 1015.5 hPa North 12.9 km/h 24.1 km/h 40 % 0.0 mm
19:22 29.6 °C 15.0 °C 1015.5 hPa NNE 3.2 km/h 24.1 km/h 41 % 0.0 mm
19:32 29.5 °C 14.9 °C 1015.5 hPa NNW 6.4 km/h 24.1 km/h 41 % 0.0 mm
19:37 29.4 °C 14.8 °C 1015.5 hPa NNW 11.3 km/h 24.1 km/h 41 % 0.0 mm
19:42 29.3 °C 14.7 °C 1015.1 hPa ENE 8.0 km/h 24.1 km/h 41 % 0.0 mm
19:47 29.2 °C 14.6 °C 1015.5 hPa NNW 6.4 km/h 20.9 km/h 41 % 0.0 mm
19:52 29.2 °C 15.0 °C 1015.1 hPa NE 16.1 km/h 20.9 km/h 42 % 0.0 mm
19:57 29.1 °C 14.9 °C 1015.5 hPa ENE 6.4 km/h 19.3 km/h 42 % 0.0 mm
20:02 28.9 °C 14.7 °C 1015.5 hPa NE 8.0 km/h 19.3 km/h 42 % 0.0 mm
20:12 28.7 °C 14.9 °C 1015.1 hPa NE 9.7 km/h 19.3 km/h 43 % 0.0 mm
20:17 28.6 °C 14.8 °C 1015.5 hPa NE 4.8 km/h 19.3 km/h 43 % 0.0 mm
20:22 28.4 °C 15.0 °C 1015.5 hPa NNW 4.8 km/h 16.1 km/h 44 % 0.0 mm
20:27 28.2 °C 14.8 °C 1015.5 hPa ENE 3.2 km/h 16.1 km/h 44 % 0.0 mm
20:32 28.0 °C 14.6 °C 1015.5 hPa NE 4.8 km/h 14.5 km/h 44 % 0.0 mm
20:37 27.8 °C 14.8 °C 1015.5 hPa NE 1.6 km/h 14.5 km/h 45 % 0.0 mm
20:42 27.6 °C 14.6 °C 1015.5 hPa NNE 4.8 km/h 14.5 km/h 45 % 0.0 mm
20:47 27.3 °C 14.7 °C 1015.5 hPa NW 3.2 km/h 14.5 km/h 46 % 0.0 mm
20:52 27.1 °C 14.5 °C 1015.5 hPa NNE 6.4 km/h 8.0 km/h 46 % 0.0 mm
20:57 26.9 °C 14.6 °C 1015.5 hPa North 3.2 km/h 11.3 km/h 47 % 0.0 mm
21:02 26.7 °C 14.5 °C 1015.5 hPa NE 6.4 km/h 11.3 km/h 47 % 0.0 mm
21:07 26.4 °C 14.5 °C 1015.5 hPa NW 4.8 km/h 11.3 km/h 48 % 0.0 mm
21:12 26.3 °C 14.4 °C 1015.8 hPa NE 8.0 km/h 11.3 km/h 48 % 0.0 mm
21:17 26.2 °C 14.3 °C 1015.8 hPa NE 3.2 km/h 11.3 km/h 48 % 0.0 mm
21:22 26.1 °C 14.2 °C 1015.8 hPa NE 4.8 km/h 11.3 km/h 48 % 0.0 mm
21:27 25.9 °C 14.4 °C 1015.8 hPa NNE 4.8 km/h 8.0 km/h 49 % 0.0 mm
21:32 25.8 °C 14.3 °C 1015.8 hPa NNE 4.8 km/h 9.7 km/h 49 % 0.0 mm
21:37 25.7 °C 14.2 °C 1016.1 hPa NE 6.4 km/h 12.9 km/h 49 % 0.0 mm
21:42 25.7 °C 14.2 °C 1016.1 hPa North 6.4 km/h 12.9 km/h 49 % 0.0 mm
21:47 25.6 °C 14.4 °C 1016.1 hPa NNW 6.4 km/h 12.9 km/h 50 % 0.0 mm
21:52 25.4 °C 14.2 °C 1016.1 hPa NE 6.4 km/h 11.3 km/h 50 % 0.0 mm
21:57 25.3 °C 14.1 °C 1015.8 hPa NNE 6.4 km/h 11.3 km/h 50 % 0.0 mm
22:02 25.2 °C 14.3 °C 1016.1 hPa NW 4.8 km/h 11.3 km/h 51 % 0.0 mm
22:07 25.1 °C 14.3 °C 1016.1 hPa NE 4.8 km/h 14.5 km/h 51 % 0.0 mm
22:12 24.9 °C 14.1 °C 1015.8 hPa NNE 3.2 km/h 14.5 km/h 51 % 0.0 mm
22:17 24.8 °C 14.0 °C 1015.8 hPa North 3.2 km/h 14.5 km/h 51 % 0.0 mm
22:22 24.7 °C 13.9 °C 1015.8 hPa NNE 8.0 km/h 12.9 km/h 51 % 0.0 mm
22:27 24.6 °C 14.1 °C 1015.8 hPa NW 1.6 km/h 12.9 km/h 52 % 0.0 mm
22:37 24.4 °C 13.9 °C 1015.8 hPa NE 8.0 km/h 12.9 km/h 52 % 0.0 mm
22:42 24.3 °C 13.8 °C 1016.1 hPa North 8.0 km/h 12.9 km/h 52 % 0.0 mm
22:47 24.3 °C 14.1 °C 1016.1 hPa NW 3.2 km/h 17.7 km/h 53 % 0.0 mm
22:52 24.1 °C 13.9 °C 1016.1 hPa NNE 6.4 km/h 17.7 km/h 53 % 0.0 mm
22:57 23.9 °C 13.7 °C 1016.1 hPa NE 3.2 km/h 17.7 km/h 53 % 0.0 mm
23:02 23.9 °C 13.7 °C 1016.1 hPa NNW 1.6 km/h 12.9 km/h 53 % 0.0 mm
23:07 23.8 °C 13.9 °C 1016.1 hPa NNE 8.0 km/h 12.9 km/h 54 % 0.0 mm
23:12 23.8 °C 13.9 °C 1016.1 hPa ENE 4.8 km/h 12.9 km/h 54 % 0.0 mm
23:17 23.7 °C 13.8 °C 1016.1 hPa NE 4.8 km/h 12.9 km/h 54 % 0.0 mm
23:22 23.6 °C 13.7 °C 1016.1 hPa North 4.8 km/h 12.9 km/h 54 % 0.0 mm
23:32 23.6 °C 14.0 °C 1016.5 hPa NNE 6.4 km/h 11.3 km/h 55 % 0.0 mm
23:37 23.5 °C 13.9 °C 1016.5 hPa Calm   9.7 km/h 55 % 0.0 mm
23:42 23.4 °C 13.8 °C 1016.5 hPa NNW 3.2 km/h 8.0 km/h 55 % 0.0 mm
23:47 23.4 °C 13.8 °C 1016.5 hPa North 4.8 km/h 8.0 km/h 55 % 0.0 mm
23:52 23.4 °C 13.8 °C 1016.5 hPa NNW 4.8 km/h 8.0 km/h 55 % 0.0 mm
23:57 23.4 °C 13.8 °C 1016.1 hPa NNW 8.0 km/h 9.7 km/h 55 % 0.0 mm
Meteo18
Compliments of Weather Underground - 4 mb

Script developed by  Jim McMurry - jmcmurry@mwt.net Adapted for the template by  Wim van der Kuil - Leuven-Template.eu

You find our weather info also at:

European Weather Network

Weather Underground

Equipment we use:

Weather-station
Davis Vue

Weather-program
Meteohub

Weather-server
Raspberry PI 2 B+

Provider
1 and 1

Davis Vue

Meteohub

Raspberry PI 2 B+

1 and 1